BEIDOU-3 M20 (C42)

Last updated on Wed Aug 26 2026 00:04:16 GMT+0000 (Coordinated Universal Time)

1 44865U 19090B 26237.00592476 -.00000005 00000+0 00000+0 0 9993 2 44865 56.6238 60.5530 0013191 309.9948 12.8832 1.86231849 45493
UTC large
Height (km)
Speed (km/s)
/
Latitude / Longitude
Inclination (degrees)
Orbital Period (minutes)
Azimuth
Elevation
Range (km)
Doppler Factor

Next 0 passes for location: London (51.5072 / 0.1276)

No passes found over London.
BEIDOU-3 M20 (C42)